Voltar ao catálogo

STARLINK-37527

AtivoComunicaçõesSSO
NORAD 68895·PAYLOAD·🇺🇸 United States

Lançado Apr 30, 2026 de Vandenberg Space Force Base

Loading…

Próximas Passagens (próximas 24 horas)

TLE

AtualizadoSource: CelesTrak SupGP

Época: Sep 14, 2026, 15:07 UTC

1 68895C 26097A   26257.63034722 -.00071863  00000+0 -22327-2 0  2570
2 68895  97.2849  91.7837 0001867  87.6488  54.9867 15.33447228    14

Acompanhe STARLINK-37527 em tempo real com AllMySat

Download on the App Store